Wind_Speed
12 11 11 11 11 11 10 10 10 11 11 11 11 11 10 10 10 10 9 9 9 8 8 8 7 7 7 6 6 6 5 5 5 5 5 5 5 5 5 5 5 6 7
11 11 11 12 12 12 11 11 11 11 10 11 11 10 10 10 10 10 9 9 8 8 8 8 7 7 7 6 6 6 6 6 6 6 6 6 6 6 6 6 7 7 8
12 11 11 12 12 11 11 11 11 11 11 11 11 11 10 10 10 10 10 9 8 8 8 8 7 7 6 6 6 7 6 6 7 7 7 7 7 6 6 7 7 7 8
13 12 12 12 11 11 11 11 11 11 11 12 11 11 10 10 10 10 10 9 9 8 8 8 8 7 7 6 7 7 6 7 7 7 6 6 6 6 6 7 7 8 8
14 14 14 14 13 12 12 12 12 12 12 12 11 11 11 10 10 10 10 9 9 9 9 8 7 8 7 7 7 7 7 7 7 7 7 7 7 7 7 8 8 9 9
16 16 14 14 13 13 13 14 14 14 13 12 11 11 11 11 11 10 10 10 9 9 9 9 8 7 8 8 7 7 8 8 9 8 7 8 8 8 7 7 7 8 8
16 16 15 14 14 14 14 14 14 14 14 13 12 11 11 11 11 11 10 10 9 9 9 9 9 8 8 8 7 7 8 8 9 8 8 8 8 8 7 7 7 7 7
17 16 16 15 15 14 14 14 14 14 14 13 13 12 12 12 12 12 11 10 10 10 10 9 9 9 8 8 8 8 8 8 8 9 8 8 9 8 8 8 8 8 8
16 16 16 17 16 16 16 15 14 14 15 14 14 13 13 13 13 12 11 11 11 11 10 10 10 10 9 9 9 9 9 9 9 9 9 9 9 10 10 10 10 10 10
16 17 18 18 18 18 17 17 15 14 15 15 15 15 14 14 13 13 12 12 12 12 11 12 11 11 10 11 11 10 11 11 10 10 11 10 10 10 11 11 11 11 11
18 18 17 18 18 18 17 16 15 15 15 15 14 14 14 15 15 15 14 13 13 13 13 13 13 12 12 12 12 12 12 12 11 11 11 11 12 11 12 12 12 12 12
18 18 18 18 18 18 17 16 16 17 16 16 16 16 16 16 15 15 14 14 14 14 14 14 14 14 14 14 13 13 13 12 12 12 12 12 12 12 12 12 12 12 13
19 20 20 20 20 19 18 17 18 18 18 18 18 18 18 18 17 16 16 16 15 15 16 16 15 15 15 15 14 14 14 14 14 14 14 14 13 13 13 13 14 14 14
21 20 20 20 21 21 20 20 20 20 19 19 19 19 19 18 18 18 18 18 17 17 17 18 18 17 17 16 15 15 16 16 16 16 15 15 15 15 15 15 15 15 15
20 19 20 20 20 20 20 20 20 20 19 19 19 19 19 19 19 19 20 20 19 19 18 18 19 18 18 18 18 17 18 18 18 17 17 17 17 17 17 17 17 17 17
20 20 19 19 20 20 21 21 22 21 21 21 20 20 20 20 20 21 22 22 21 20 19 19 19 19 19 20 20 19 19 20 20 19 18 19 19 19 19 19 18 18 18
21 21 21 21 21 21 22 23 23 23 23 22 22 21 22 22 22 23 23 24 23 21 20 21 21 21 20 20 20 20 20 20 20 20 20 20 20 20 20 20 20 20 20
22 23 23 23 23 23 23 23 23 23 22 22 22 22 22 22 23 23 23 23 23 23 23 23 23 23 23 22 21 21 21 21 21 21 21 22 22 22 22 22 22 22 22
24 24 24 24 24 24 24 24 24 24 24 24 24 24 23 24 24 24 24 24 24 24 23 24 25 24 23 23 23 23 23 22 22 22 22 22 23 23 23 24 24 24 24
27 26 26 26 26 26 26 26 25 25 25 25 26 26 25 24 24 24 23 23 24 24 24 24 25 25 24 23 23 23 24 24 24 23 23 24 24 24 24 24 25 25 25
27 27 27 28 28 28 27 27 26 26 26 27 27 27 27 26 25 24 24 23 23 24 24 24 23 24 24 24 24 24 24 24 24 24 24 24 24 25 25 24 24 24 25
27 27 27 28 28 28 28 27 27 27 27 27 27 27 27 26 25 25 25 25 24 24 24 24 24 24 23 23 24 24 24 25 24 24 24 25 25 26 26 26 26 26 27
27 27 27 27 28 28 27 27 28 27 27 26 27 26 26 26 26 26 26 25 25 25 24 24 25 25 25 25 25 25 25 25 25 26 26 26 27 28 28 28 28 28 28
27 27 27 27 27 27 27 27 27 28 27 27 26 26 25 25 25 25 25 25 25 25 25 25 25 26 26 26 26 26 26 26 26 27 27 28 28 29 29 29 29 30 29
26 26 25 25 25 25 26 26 26 26 25 25 25 25 24 25 25 25 26 26 26 26 26 26 26 26 27 27 27 27 27 27 28 28 28 28 28 29 29 29 29 30 30
24 24 23 23 23 24 24 24 24 24 24 24 24 24 25 25 25 26 26 26 27 27 27 27 27 27 27 28 28 28 28 28 29 29 28 28 29 29 30 29 30 30 30
Wind_Direction
293 298 303 308 309 312 313 314 318 321 322 322 323 324 322 320 317 314 313 309 309 308 305 298 298 306 314 315 313 315 314 314 310 311 316 311 309 300 292 293 287 283 281
287 292 298 304 306 306 309 312 316 317 318 319 318 319 319 318 315 309 305 301 306 311 312 304 299 302 309 314 313 309 312 308 304 302 302 299 299 297 289 283 285 285 286
285 290 294 299 300 300 304 309 312 314 315 316 315 316 317 317 317 314 309 302 301 303 305 302 300 296 301 308 311 311 309 306 307 305 299 294 295 295 289 281 281 283 282
282 284 288 295 295 295 299 305 309 311 311 313 314 312 311 312 312 312 308 301 297 295 297 300 299 296 298 300 304 305 304 304 306 306 298 297 301 298 290 285 280 280 278
281 281 284 290 295 294 295 301 304 305 305 305 307 306 304 304 304 306 304 298 292 291 291 289 292 295 295 293 297 300 299 299 300 297 295 297 297 294 290 289 283 278 274
280 276 276 281 287 289 290 294 296 299 299 298 298 299 296 295 296 300 299 296 290 287 288 284 284 288 292 291 291 296 300 296 296 294 293 296 298 296 296 294 288 278 272
279 274 273 276 279 282 285 288 293 293 294 293 292 291 290 289 290 290 290 292 291 287 284 283 282 283 288 292 295 300 306 302 295 290 291 292 294 295 294 299 292 281 275
277 276 273 277 281 280 283 287 291 292 290 289 288 287 286 286 286 284 284 284 285 285 280 281 278 280 281 286 291 293 300 301 295 291 289 288 288 289 288 290 290 288 283
278 278 279 280 281 281 282 281 283 285 286 286 284 283 280 281 283 282 279 279 280 279 277 280 279 275 276 279 283 289 293 297 294 289 283 285 286 288 291 290 288 284 283
275 275 279 278 279 279 282 281 281 283 283 283 281 281 280 278 280 278 274 276 276 274 270 276 278 276 274 274 279 284 288 291 288 285 285 282 284 288 290 289 286 284 279
277 279 281 280 277 276 279 278 279 286 285 282 281 281 282 280 279 278 275 273 274 273 271 273 274 275 275 276 279 280 282 283 285 287 289 284 282 283 288 286 285 286 284
280 281 283 282 283 278 278 278 281 284 284 284 282 278 280 280 281 280 277 273 272 273 272 273 274 273 274 275 276 277 278 277 280 284 285 285 281 279 283 285 286 287 286
282 284 284 280 279 280 280 279 281 281 281 280 282 277 276 278 276 278 278 275 273 273 272 273 273 274 275 274 274 275 275 275 277 280 281 282 281 278 278 278 282 284 284
277 280 280 278 277 279 281 281 282 281 279 280 280 277 278 278 276 276 277 276 275 275 273 272 272 272 271 272 273 274 274 275 276 278 278 280 276 275 274 276 281 282 282
277 278 278 274 274 276 278 280 282 279 278 280 280 277 278 279 278 277 276 276 275 274 273 271 270 270 270 272 272 274 273 274 276 275 275 276 274 273 273 276 278 280 282
274 275 276 273 273 273 276 279 279 279 279 280 280 279 279 279 278 277 278 275 272 271 270 272 272 270 271 273 272 271 272 272 273 272 272 273 275 273 272 274 275 277 280
272 274 274 273 273 273 275 276 276 276 277 277 279 279 278 278 278 277 277 275 272 270 270 270 272 271 270 271 272 273 271 270 271 271 269 271 273 274 273 273 274 276 279
271 273 273 274 275 275 275 275 276 274 275 276 277 276 277 277 278 277 276 277 275 272 272 272 271 271 268 267 269 270 269 270 271 271 270 271 272 275 274 272 273 275 277
273 274 274 275 277 276 277 277 277 274 273 275 276 277 278 278 278 277 277 277 278 277 274 274 273 271 267 266 267 267 268 270 270 271 270 271 272 274 274 273 274 276 278
272 273 274 275 277 278 279 279 278 278 277 277 277 277 277 277 278 278 278 277 278 279 277 276 273 271 267 266 265 266 268 270 271 270 270 270 271 271 273 274 275 276 277
271 271 272 275 276 277 277 277 277 278 278 277 276 275 274 275 276 277 279 278 277 277 277 275 274 271 269 267 266 267 270 271 272 272 271 272 273 273 273 274 276 277 279
273 271 272 274 275 276 276 276 276 276 276 275 273 274 273 273 274 275 277 278 276 275 275 274 272 272 272 270 270 270 270 270 271 271 272 272 273 275 274 275 276 278 279
273 273 273 273 275 276 276 277 277 277 276 275 273 272 273 273 273 274 276 277 276 275 274 273 271 271 270 270 271 271 270 270 271 271 272 273 274 275 277 277 278 279 278
274 274 273 273 274 274 275 277 278 278 277 276 275 274 272 272 273 274 273 274 274 274 272 271 271 270 270 270 270 269 270 270 270 271 272 274 274 276 279 279 278 279 279
274 275 274 275 273 273 274 276 278 278 278 277 276 275 273 272 273 273 273 272 274 274 274 273 271 270 269 269 269 269 269 270 270 271 272 274 275 276 277 278 278 278 278
275 275 276 276 275 273 273 275 277 279 278 278 277 275 274 273 273 272 272 272 273 274 274 273 271 270 269 268 268 268 269 271 272 271 272 273 274 275 276 278 278 278 279
Height
5890 5889 5888 5887 5886 5885 5885 5884 5882 5881 5879 5878 5876 5874 5873 5871 5870 5868 5867 5866 5865 5864 5863 5863 5862 5862 5861 5860 5860 5859 5858 5857 5856 5856 5855 5855 5854 5854 5853 5853 5853 5853 5853
5887 5887 5886 5884 5884 5883 5882 5881 5880 5879 5877 5876 5874 5872 5871 5869 5868 5866 5865 5864 5863 5862 5862 5861 5860 5860 5859 5859 5858 5857 5856 5856 5855 5854 5854 5853 5853 5852 5852 5852 5852 5852 5852
5884 5883 5883 5882 5881 5880 5879 5879 5877 5876 5875 5873 5872 5870 5869 5867 5866 5864 5863 5862 5861 5860 5860 5859 5858 5858 5858 5857 5856 5856 5855 5854 5853 5853 5852 5852 5851 5851 5850 5850 5850 5850 5849
5881 5880 5880 5879 5878 5877 5877 5876 5875 5874 5872 5871 5869 5868 5866 5865 5864 5862 5861 5860 5858 5858 5857 5857 5856 5856 5856 5855 5855 5854 5853 5852 5852 5851 5850 5850 5850 5849 5848 5848 5847 5847 5847
5877 5877 5876 5876 5875 5875 5874 5873 5872 5871 5870 5868 5866 5865 5864 5863 5861 5860 5858 5857 5856 5856 5855 5854 5854 5854 5853 5853 5852 5852 5851 5850 5850 5849 5849 5848 5848 5847 5846 5846 5845 5845 5844
5873 5873 5873 5873 5872 5871 5871 5870 5869 5868 5866 5865 5863 5862 5861 5860 5858 5857 5856 5854 5854 5853 5853 5852 5852 5851 5851 5850 5850 5850 5849 5848 5848 5847 5846 5846 5846 5845 5844 5843 5843 5842 5842
5869 5869 5868 5868 5868 5868 5867 5866 5865 5864 5863 5861 5860 5859 5858 5856 5855 5854 5853 5852 5851 5850 5850 5849 5849 5849 5849 5848 5848 5847 5847 5846 5845 5844 5844 5844 5844 5843 5842 5841 5841 5840 5840
5864 5864 5864 5864 5863 5863 5862 5861 5860 5860 5859 5858 5856 5855 5854 5853 5851 5850 5850 5849 5848 5847 5847 5847 5846 5846 5846 5846 5845 5845 5844 5843 5842 5841 5841 5841 5841 5840 5839 5839 5839 5838 5838
5859 5859 5860 5859 5858 5858 5858 5856 5855 5855 5854 5853 5852 5851 5850 5849 5848 5847 5846 5845 5845 5844 5844 5844 5843 5843 5843 5843 5842 5842 5842 5841 5840 5839 5839 5838 5838 5837 5837 5836 5836 5835 5834
5855 5855 5855 5854 5853 5853 5852 5852 5851 5850 5849 5849 5847 5847 5846 5844 5844 5843 5842 5841 5841 5841 5841 5840 5840 5840 5839 5839 5839 5839 5839 5838 5837 5836 5836 5835 5835 5834 5833 5832 5832 5831 5831
5850 5850 5849 5849 5848 5847 5847 5846 5846 5846 5844 5843 5843 5842 5841 5840 5839 5839 5838 5838 5837 5837 5836 5836 5836 5836 5836 5836 5835 5835 5835 5834 5833 5833 5832 5832 5831 5830 5829 5829 5828 5827 5827
5845 5846 5845 5844 5843 5842 5842 5842 5841 5841 5840 5839 5839 5838 5837 5836 5835 5835 5834 5834 5833 5833 5832 5832 5832 5832 5832 5831 5831 5831 5831 5830 5830 5829 5828 5828 5827 5826 5826 5825 5825 5824 5823
5841 5842 5841 5841 5839 5838 5837 5837 5837 5836 5835 5835 5834 5833 5832 5831 5831 5830 5830 5829 5828 5828 5828 5828 5828 5828 5827 5827 5827 5826 5826 5826 5825 5825 5824 5824 5823 5822 5822 5821 5821 5820 5819
5837 5837 5836 5836 5834 5834 5833 5832 5831 5830 5830 5829 5828 5828 5827 5827 5826 5825 5825 5824 5823 5822 5822 5823 5823 5823 5823 5822 5822 5822 5821 5821 5821 5820 5820 5819 5819 5818 5817 5817 5816 5815 5815
5831 5831 5830 5830 5829 5828 5828 5827 5826 5824 5824 5823 5823 5822 5822 5821 5820 5820 5819 5819 5817 5817 5817 5817 5817 5817 5817 5817 5817 5816 5816 5816 5815 5815 5815 5814 5814 5813 5813 5812 5811 5810 5810
5825 5825 5824 5824 5824 5823 5822 5821 5820 5819 5818 5818 5817 5816 5816 5815 5815 5814 5813 5812 5812 5811 5811 5811 5811 5811 5811 5811 5811 5810 5810 5810 5810 5809 5809 5808 5808 5808 5807 5807 5806 5805 5804
5819 5819 5818 5818 5818 5817 5816 5815 5814 5813 5812 5812 5811 5810 5809 5809 5808 5808 5806 5805 5805 5805 5804 5804 5804 5805 5805 5804 5804 5804 5803 5803 5803 5803 5803 5802 5802 5801 5801 5800 5800 5799 5798
5812 5812 5812 5812 5811 5810 5809 5808 5807 5806 5806 5805 5804 5804 5803 5802 5801 5801 5800 5799 5798 5798 5798 5797 5797 5798 5798 5797 5797 5797 5797 5797 5797 5797 5796 5796 5795 5795 5794 5794 5793 5792 5792
5806 5806 5805 5805 5804 5803 5803 5802 5800 5799 5798 5798 5797 5796 5796 5795 5794 5794 5793 5793 5792 5791 5790 5790 5790 5790 5790 5790 5790 5790 5789 5789 5789 5790 5789 5789 5788 5788 5787 5787 5786 5785 5784
5799 5798 5798 5798 5797 5796 5795 5794 5793 5792 5791 5790 5790 5789 5788 5788 5787 5787 5786 5785 5785 5784 5783 5782 5782 5782 5782 5782 5782 5782 5782 5782 5782 5782 5782 5782 5781 5781 5780 5779 5779 5778 5777
5791 5791 5790 5790 5789 5789 5788 5787 5786 5784 5784 5783 5782 5781 5781 5780 5780 5779 5779 5778 5777 5776 5775 5774 5774 5774 5774 5775 5775 5774 5774 5774 5774 5774 5774 5774 5773 5773 5772 5772 5771 5770 5769
5783 5783 5782 5782 5781 5780 5780 5779 5778 5777 5776 5775 5774 5773 5773 5772 5772 5771 5771 5770 5769 5769 5768 5767 5766 5766 5766 5766 5766 5767 5767 5766 5766 5766 5766 5766 5765 5765 5764 5763 5763 5762 5761
5776 5775 5774 5774 5773 5772 5772 5771 5770 5769 5768 5767 5766 5765 5765 5764 5764 5763 5762 5762 5761 5761 5760 5759 5759 5759 5759 5758 5758 5758 5758 5758 5758 5758 5758 5758 5757 5756 5756 5755 5754 5753 5752
5768 5767 5766 5766 5765 5764 5764 5763 5762 5760 5759 5758 5757 5757 5756 5756 5755 5755 5754 5753 5753 5752 5752 5752 5751 5751 5751 5751 5750 5750 5750 5750 5750 5750 5750 5749 5748 5748 5747 5746 5745 5744 5743
5760 5759 5758 5757 5756 5756 5755 5755 5753 5752 5751 5751 5750 5749 5748 5748 5747 5746 5745 5745 5745 5744 5744 5743 5743 5743 5743 5742 5742 5742 5742 5741 5741 5741 5741 5740 5739 5738 5737 5736 5735 5734 5734
5752 5751 5750 5749 5749 5748 5747 5747 5746 5745 5744 5743 5742 5741 5740 5740 5739 5738 5738 5737 5736 5736 5735 5734 5734 5734 5734 5733 5733 5733 5733 5732 5732 5731 5731 5731 5730 5729 5728 5727 5726 5725 5724